Location: Oshawa
(43.9000°N, 78.8670°W)
Time: 11:21:04
(UTC-04:00)

Cosmos 1500 - Visible Passes

Search period start: 24 July 2014 00:00
Search period end: 03 August 2014 00:00
Orbit: 519 x 545 km, 82.5° (Epoch: 23 July)

Date Brightness Start Highest point End Pass type
(mag) Time Alt. Az. Time Alt. Az. Time Alt. Az.
24 Jul 5.7 00:59:06 15° ENE 00:59:06 15° ENE 01:00:35 10° NE visible
24 Jul 4.4 02:34:27 36° NW 02:34:27 36° NW 02:37:36 10° N visible
25 Jul 5.8 00:49:14 14° ENE 00:49:14 14° ENE 00:50:26 10° NE visible
25 Jul 4.4 02:24:34 37° NW 02:24:34 37° NW 02:27:36 10° N visible
26 Jul 5.8 00:39:21 13° ENE 00:39:21 13° ENE 00:40:17 10° NE visible
26 Jul 4.4 02:14:41 37° NW 02:14:41 37° NW 02:17:37 10° N visible
27 Jul 5.9 00:29:27 12° ENE 00:29:27 12° ENE 00:30:06 10° NE visible
27 Jul 4.5 02:04:48 37° NW 02:04:48 37° NW 02:07:37 10° N visible
28 Jul 5.9 00:19:33 11° ENE 00:19:33 11° ENE 00:19:54 10° ENE visible
28 Jul 4.5 01:54:53 37° NNW 01:54:53 37° NNW 01:57:37 10° N visible
29 Jul 6.0 00:09:38 10° ENE 00:09:38 10° ENE 00:09:39 10° ENE visible
29 Jul 4.6 01:44:58 37° NNW 01:44:58 37° NNW 01:47:37 10° N visible
30 Jul 4.7 01:35:02 36° NNW 01:35:02 36° NNW 01:37:36 10° N visible
31 Jul 4.7 01:25:06 36° NNW 01:25:06 36° NNW 01:27:36 10° N visible
01 Aug 4.7 01:15:09 35° NNW 01:15:09 35° NNW 01:17:35 10° N visible
02 Aug 4.8 01:05:11 35° N 01:05:11 35° N 01:07:34 10° N visible
